DELTA 1 R/B, 979

Orbit data source: Space-Track

DELTA 1 R/B, 979 is space debris in SSO originally from a launch on Fri, 22 Jan 1965 UTC launched from the Air Force Eastern Test Range (AFETR). Debris objects in space refer to the collection of defunct objects orbiting the Earth. Examples of debris include non-operational satellites, rocket bodies, and fragments generated from explosions, collisions, or faulty payload assembly.

Loading next visibility...
Identifier
979, 1965-004B
Orbit
SSO
Country
Flag of USUS
Related business
Manufacturer
ABL
Mission
Spacecraft
Bus & Motor
ALTAIR, Unknown motor
Mass
60 kg wet, 60 kg dry
Launch date (UTC)
1965-01-22 (61 years ago)
Launch vehicle
Unknown
Launch site
Air Force Eastern Test Range (AFETR)
Object type
Payload
Rocket body
Debris
Shape & HBR
Unknown
Radar Cross Section
Medium (>0.1 m² and <1 m²)

Expand to show TLE details & history
Last TLE update: 14 hours ago

TLE from 14 hours ago
0 DELTA 1 R/B
1 00979U 65004B   26112.14926768  .00000104  00000-0  14275-3 0  9992
2 00979  96.4248 355.8292 1139673  24.0997 340.9339 12.15519893708757
Epoch: 2026-04-22T03:34Z
TLE epoch observation values (Epoch: 2026-04-22T03:34:56.727Z)
Latitude
0.00003°
Longitude
91.87799°
Altitude
767.139 km
Speed
7.857 km/s
True Right ascension
23h 43m 19s
True Declination
0° 00' 00"
Sunlit
Object was in daylight at epoch
Visualization orbit readout
Latitude
Unknown
Longitude
Unknown
Altitude
Unknown
Speed
Unknown
Apparent Right ascension
Unknown
Apparent Declination
Unknown
Sunlit
N/A
Visualization observer readout
Local Sidereal Time
01:01:03
Azimuth
Unknown
Elevation
Unknown
Doppler factor
Unknown
Orbital elements
Apogee altitude
2,519.735 km
Perigee altitude
699.096 km
Semi-major axis
7,987.552 km
Eccentricity
0.11397
Inclination
96.4248°
RAAN
355.8292°
Arg. of periapsis
24.0997°
True anomaly
336.01511°
Mean anomaly
340.9339°
Eccentric anomaly
338.54553°
Mean motion
3.04034 °/min
Orbital period
118.41 mins
BSTAR
0.00014275
Loading maneuver chart data...
Computing Atmospheric mass density...
Loading historical data...
Loading historical data...
Loading historical data...
Loading historical data...
Loading historical data...
Loading historical data...
Loading historical data...
Other satellites on launch #4 in the year 1965 (1965-01-22 UTC)

Documentation

Showing up to 5 results
|